QPF
0.00 0.00 0.00 0.00 0.00 0.00 0.00 0.00 0.00 0.00 0.00 0.00 0.00 0.00 0.00 0.00 0.00 0.00 0.00 0.00 0.00 0.00 0.00 0.00 0.00 0.00 0.00 0.00 0.00 0.00 0.00 0.00 0.00 0.00 0.00 0.00 0.00 0.00 0.00 0.00 0.00 0.00 0.00 0.00
0.00 0.00 0.00 0.00 0.00 0.00 0.00 0.00 0.00 0.00 0.00 0.00 0.00 0.00 0.00 0.00 0.00 0.00 0.00 0.00 0.00 0.00 0.00 0.00 0.00 0.00 0.00 0.00 0.00 0.00 0.00 0.00 0.00 0.00 0.00 0.00 0.00 0.00 0.00 0.00 0.00 0.00 0.00 0.00
0.00 0.00 0.00 0.00 0.00 0.00 0.00 0.00 0.00 0.00 0.00 0.00 0.00 0.00 0.00 0.00 0.00 0.00 0.00 0.00 0.00 0.00 0.00 0.00 0.00 0.00 0.00 0.00 0.00 0.00 0.00 0.00 0.00 0.00 0.00 0.00 0.00 0.00 0.00 0.00 0.00 0.00 0.00 0.00
0.00 0.00 0.00 0.00 0.00 0.00 0.00 0.00 0.00 0.00 0.00 0.00 0.00 0.00 0.00 0.00 0.00 0.00 0.00 0.00 0.00 0.00 0.00 0.00 0.00 0.00 0.00 0.00 0.00 0.00 0.00 0.00 0.00 0.00 0.00 0.00 0.00 0.00 0.00 0.00 0.00 0.00 0.00 0.00
0.00 0.00 0.00 0.00 0.00 0.00 0.00 0.00 0.00 0.00 0.00 0.00 0.00 0.00 0.00 0.00 0.00 0.00 0.00 0.00 0.00 0.00 0.00 0.00 0.00 0.00 0.00 0.00 0.00 0.00 0.00 0.00 0.00 0.00 0.00 0.00 0.00 0.00 0.00 0.00 0.00 0.00 0.00 0.00
0.00 0.00 0.00 0.00 0.00 0.00 0.00 0.00 0.00 0.00 0.00 0.00 0.00 0.00 0.00 0.00 0.00 0.00 0.00 0.00 0.00 0.00 0.00 0.00 0.00 0.00 0.00 0.00 0.00 0.00 0.00 0.00 0.00 0.00 0.00 0.00 0.00 0.00 0.00 0.00 0.00 0.00 0.00 0.00
0.00 0.00 0.00 0.00 0.00 0.00 0.00 0.00 0.00 0.00 0.00 0.00 0.00 0.00 0.00 0.00 0.00 0.00 0.00 0.00 0.00 0.00 0.00 0.00 0.00 0.00 0.00 0.00 0.00 0.00 0.00 0.00 0.00 0.00 0.00 0.00 0.00 0.00 0.00 0.00 0.00 0.00 0.00 0.00
0.00 0.00 0.00 0.00 0.00 0.00 0.00 0.00 0.00 0.00 0.00 0.00 0.00 0.00 0.00 0.00 0.00 0.00 0.00 0.00 0.00 0.00 0.00 0.00 0.00 0.00 0.00 0.00 0.00 0.00 0.00 0.00 0.00 0.00 0.00 0.00 0.00 0.00 0.00 0.00 0.00 0.00 0.00 0.00
0.00 0.00 0.00 0.00 0.00 0.00 0.00 0.00 0.00 0.00 0.00 0.00 0.00 0.00 0.00 0.00 0.00 0.00 0.00 0.00 0.00 0.00 0.00 0.00 0.00 0.00 0.00 0.00 0.00 0.00 0.00 0.00 0.00 0.00 0.00 0.00 0.00 0.00 0.00 0.00 0.00 0.00 0.00 0.00
0.00 0.00 0.00 0.00 0.00 0.00 0.00 0.00 0.00 0.00 0.00 0.00 0.00 0.00 0.00 0.00 0.00 0.00 0.00 0.00 0.00 0.00 0.00 0.00 0.00 0.00 0.00 0.00 0.00 0.00 0.00 0.00 0.00 0.00 0.00 0.00 0.00 0.00 0.00 0.00 0.00 0.00 0.00 0.00
0.00 0.00 0.00 0.00 0.00 0.00 0.00 0.00 0.00 0.00 0.00 0.00 0.00 0.00 0.00 0.00 0.00 0.00 0.00 0.00 0.00 0.00 0.00 0.00 0.00 0.00 0.00 0.00 0.00 0.00 0.00 0.00 0.00 0.00 0.00 0.00 0.00 0.00 0.00 0.00 0.00 0.00 0.00 0.00
0.00 0.00 0.00 0.00 0.00 0.00 0.00 0.00 0.00 0.00 0.00 0.00 0.00 0.00 0.00 0.00 0.00 0.00 0.00 0.00 0.00 0.00 0.00 0.00 0.00 0.00 0.00 0.00 0.00 0.00 0.00 0.00 0.00 0.00 0.00 0.00 0.00 0.00 0.00 0.00 0.00 0.00 0.00 0.00
0.00 0.00 0.00 0.00 0.00 0.00 0.00 0.00 0.00 0.00 0.00 0.00 0.00 0.00 0.00 0.00 0.00 0.00 0.00 0.00 0.00 0.00 0.00 0.00 0.00 0.00 0.00 0.00 0.00 0.00 0.00 0.00 0.00 0.00 0.00 0.00 0.00 0.00 0.00 0.00 0.00 0.00 0.00 0.00
0.00 0.00 0.00 0.00 0.00 0.00 0.00 0.00 0.00 0.00 0.00 0.00 0.00 0.00 0.00 0.00 0.00 0.00 0.00 0.00 0.00 0.00 0.00 0.00 0.00 0.00 0.00 0.00 0.00 0.00 0.00 0.00 0.00 0.00 0.00 0.00 0.00 0.00 0.00 0.00 0.00 0.00 0.00 0.00
0.00 0.00 0.00 0.00 0.00 0.00 0.00 0.00 0.00 0.00 0.00 0.00 0.00 0.00 0.00 0.00 0.00 0.00 0.00 0.00 0.00 0.00 0.00 0.00 0.00 0.00 0.00 0.00 0.00 0.00 0.00 0.00 0.00 0.00 0.00 0.00 0.00 0.00 0.00 0.00 0.00 0.00 0.00 0.00
0.00 0.00 0.00 0.00 0.00 0.00 0.00 0.00 0.00 0.00 0.00 0.00 0.00 0.00 0.00 0.00 0.00 0.00 0.00 0.00 0.00 0.00 0.00 0.00 0.00 0.00 0.00 0.00 0.00 0.00 0.00 0.00 0.00 0.00 0.00 0.00 0.00 0.00 0.00 0.00 0.00 0.00 0.00 0.00
0.00 0.00 0.00 0.00 0.00 0.00 0.00 0.00 0.00 0.00 0.00 0.00 0.00 0.00 0.00 0.00 0.00 0.00 0.00 0.00 0.00 0.00 0.00 0.00 0.00 0.00 0.00 0.00 0.00 0.00 0.00 0.00 0.00 0.00 0.00 0.00 0.00 0.00 0.00 0.00 0.00 0.00 0.00 0.00
0.00 0.00 0.00 0.00 0.00 0.00 0.00 0.00 0.00 0.00 0.00 0.00 0.00 0.00 0.00 0.00 0.00 0.00 0.00 0.00 0.00 0.00 0.00 0.00 0.00 0.00 0.00 0.00 0.00 0.00 0.00 0.00 0.00 0.00 0.00 0.00 0.00 0.00 0.00 0.00 0.00 0.00 0.00 0.00
0.00 0.00 0.00 0.00 0.00 0.00 0.00 0.00 0.00 0.00 0.00 0.00 0.00 0.00 0.00 0.00 0.00 0.00 0.00 0.00 0.00 0.00 0.00 0.00 0.00 0.00 0.00 0.00 0.00 0.00 0.00 0.00 0.00 0.00 0.00 0.00 0.00 0.00 0.00 0.00 0.00 0.00 0.00 0.00
0.00 0.00 0.00 0.00 0.00 0.00 0.00 0.00 0.00 0.00 0.00 0.00 0.00 0.00 0.00 0.00 0.00 0.00 0.00 0.00 0.00 0.00 0.00 0.00 0.00 0.00 0.00 0.00 0.00 0.00 0.00 0.00 0.00 0.00 0.00 0.00 0.00 0.00 0.00 0.00 0.00 0.00 0.00 0.00
0.00 0.00 0.00 0.00 0.00 0.00 0.00 0.00 0.00 0.00 0.00 0.00 0.00 0.00 0.00 0.00 0.00 0.00 0.00 0.00 0.00 0.00 0.00 0.00 0.00 0.00 0.00 0.00 0.00 0.00 0.00 0.00 0.00 0.00 0.00 0.00 0.00 0.00 0.00 0.00 0.00 0.00 0.00 0.00
0.00 0.00 0.00 0.00 0.00 0.00 0.00 0.00 0.00 0.00 0.00 0.00 0.00 0.00 0.00 0.00 0.00 0.00 0.00 0.00 0.00 0.00 0.00 0.00 0.00 0.00 0.00 0.00 0.00 0.00 0.00 0.00 0.00 0.00 0.00 0.00 0.00 0.00 0.00 0.00 0.00 0.00 0.00 0.00
0.00 0.00 0.00 0.00 0.00 0.00 0.00 0.00 0.00 0.00 0.00 0.00 0.00 0.00 0.00 0.00 0.00 0.00 0.00 0.00 0.00 0.00 0.00 0.00 0.00 0.00 0.00 0.00 0.00 0.00 0.00 0.00 0.00 0.00 0.00 0.00 0.00 0.00 0.00 0.00 0.00 0.00 0.00 0.00
0.00 0.00 0.00 0.00 0.00 0.00 0.00 0.00 0.00 0.00 0.00 0.00 0.00 0.00 0.00 0.00 0.00 0.00 0.00 0.00 0.00 0.00 0.00 0.00 0.00 0.00 0.00 0.00 0.00 0.00 0.00 0.00 0.00 0.00 0.00 0.00 0.00 0.00 0.00 0.00 0.00 0.00 0.00 0.00
0.00 0.00 0.00 0.00 0.00 0.00 0.00 0.00 0.00 0.00 0.00 0.00 0.00 0.00 0.00 0.00 0.00 0.00 0.00 0.00 0.00 0.00 0.00 0.00 0.00 0.00 0.00 0.00 0.00 0.00 0.00 0.00 0.00 0.00 0.00 0.00 0.00 0.00 0.00 0.00 0.00 0.00 0.00 0.00
0.00 0.00 0.00 0.00 0.00 0.00 0.00 0.00 0.00 0.00 0.00 0.00 0.00 0.00 0.00 0.00 0.00 0.00 0.00 0.00 0.00 0.00 0.00 0.00 0.00 0.00 0.00 0.00 0.00 0.00 0.00 0.00 0.00 0.00 0.00 0.00 0.00 0.00 0.00 0.00 0.00 0.00 0.00 0.00
MSLP
1014.51 1015.05 1014.70 1014.33 1014.23 1014.13 1014.06 1014.06 1013.92 1013.30 1013.30 1013.38 1012.79 1012.02 1010.51 1009.99 1010.30 1010.35 1010.31 1010.84 1011.21 1011.66 1012.13 1012.72 1013.15 1013.45 1014.01 1014.58 1014.80 1015.02 1015.44 1015.84 1016.04 1016.29 1016.41 1016.39 1016.31 1015.98 1015.57 1015.09 1014.84 1014.82 1014.56 1014.44
1015.21 1014.75 1014.28 1014.23 1014.25 1014.34 1014.40 1014.27 1014.01 1013.44 1013.43 1013.62 1012.92 1011.32 1009.85 1009.62 1009.56 1009.74 1009.94 1010.39 1011.07 1011.69 1012.65 1013.20 1013.54 1013.95 1014.21 1014.68 1015.06 1015.29 1015.67 1015.96 1016.14 1016.21 1016.27 1016.31 1016.18 1015.81 1015.48 1015.11 1014.87 1014.68 1014.74 1014.56
1014.85 1014.21 1013.78 1014.25 1014.22 1014.41 1014.47 1014.42 1014.20 1014.10 1013.85 1013.77 1013.49 1011.41 1009.90 1009.42 1009.34 1009.50 1009.78 1010.36 1011.01 1011.76 1012.63 1013.43 1013.80 1014.02 1014.48 1014.86 1015.08 1015.50 1015.93 1016.09 1016.16 1016.17 1016.28 1016.23 1016.04 1015.91 1015.52 1015.36 1015.14 1014.95 1014.76 1014.77
1014.83 1014.15 1014.10 1014.47 1014.29 1014.39 1014.74 1014.35 1014.51 1014.72 1014.87 1015.00 1014.16 1013.04 1010.61 1009.63 1009.46 1009.41 1009.73 1010.37 1011.00 1011.63 1012.67 1013.40 1013.83 1014.20 1014.63 1015.01 1015.29 1015.58 1015.95 1016.20 1016.22 1016.28 1016.43 1016.51 1016.41 1016.20 1015.77 1015.69 1015.52 1015.17 1014.97 1014.97
1014.36 1014.42 1014.66 1014.73 1014.49 1014.49 1014.88 1015.01 1015.41 1015.66 1015.78 1015.74 1014.93 1014.65 1010.28 1009.77 1009.28 1009.16 1009.68 1010.29 1010.98 1011.57 1012.19 1013.05 1013.65 1014.03 1014.41 1014.92 1015.54 1015.96 1016.11 1016.25 1016.28 1016.33 1016.51 1016.54 1016.41 1016.19 1015.80 1015.57 1015.64 1015.55 1015.22 1014.98
1014.76 1014.78 1015.05 1015.10 1015.25 1015.07 1015.40 1015.92 1016.57 1017.03 1016.97 1016.69 1015.00 1014.37 1010.90 1009.62 1008.79 1008.75 1009.24 1010.07 1010.81 1011.53 1012.18 1012.87 1013.32 1013.96 1014.65 1015.21 1015.76 1016.14 1016.34 1016.38 1016.40 1016.30 1016.36 1016.45 1016.50 1016.20 1015.99 1015.98 1015.93 1015.67 1015.41 1015.14
1015.40 1015.25 1015.38 1015.44 1015.90 1015.93 1016.09 1016.62 1017.92 1018.39 1018.29 1016.71 1015.41 1014.65 1010.28 1008.54 1008.29 1008.57 1008.96 1009.68 1010.60 1011.34 1012.20 1013.04 1013.49 1014.02 1014.82 1015.32 1015.80 1016.13 1016.34 1016.50 1016.59 1016.46 1016.23 1016.26 1016.17 1016.17 1016.13 1016.29 1016.26 1015.74 1015.57 1015.25
1015.64 1016.08 1015.72 1015.82 1015.80 1015.81 1016.54 1016.68 1017.48 1017.86 1018.62 1016.93 1015.62 1013.35 1009.00 1007.91 1007.84 1008.16 1008.60 1008.99 1010.22 1011.29 1011.90 1012.75 1013.31 1013.76 1014.53 1014.98 1015.67 1016.04 1016.33 1016.50 1016.58 1016.46 1016.21 1016.28 1016.27 1016.23 1016.41 1016.30 1016.28 1016.10 1015.82 1015.54
1015.54 1016.08 1016.34 1016.36 1016.33 1016.42 1016.83 1016.90 1016.67 1017.26 1019.13 1017.33 1014.49 1011.76 1008.49 1007.47 1007.72 1008.13 1008.60 1009.18 1009.97 1010.77 1011.55 1012.43 1013.18 1013.50 1014.24 1014.76 1015.43 1015.92 1016.21 1016.36 1016.48 1016.53 1016.15 1016.34 1016.28 1016.50 1016.53 1016.49 1016.32 1015.90 1015.67 1015.26
1014.43 1015.81 1016.98 1016.89 1016.91 1016.89 1016.71 1016.78 1017.03 1017.61 1018.20 1016.89 1014.16 1012.16 1009.26 1007.63 1007.63 1008.07 1008.73 1009.24 1009.78 1010.51 1011.20 1012.08 1012.93 1013.32 1013.95 1014.56 1015.24 1015.87 1016.09 1016.15 1016.32 1016.40 1016.26 1016.26 1016.57 1016.40 1016.28 1016.27 1016.19 1015.64 1015.45 1015.28
1014.43 1015.40 1017.65 1017.57 1017.17 1016.85 1017.13 1016.71 1017.11 1017.21 1016.89 1016.10 1014.49 1010.87 1007.92 1007.22 1007.39 1007.78 1008.12 1008.64 1009.37 1010.20 1010.70 1011.46 1012.63 1013.25 1013.83 1014.51 1015.24 1015.73 1016.02 1016.13 1016.48 1016.51 1016.21 1016.18 1016.43 1016.29 1016.10 1015.86 1015.77 1015.50 1015.28 1015.04
1014.20 1015.30 1016.86 1017.20 1017.04 1017.05 1016.84 1016.19 1016.18 1016.81 1016.91 1016.43 1014.75 1010.67 1007.80 1007.39 1007.36 1007.82 1008.03 1008.48 1008.85 1009.81 1010.56 1011.47 1012.38 1013.33 1013.92 1014.55 1015.27 1015.62 1015.87 1016.03 1016.33 1016.37 1016.21 1016.06 1016.24 1016.16 1016.04 1015.90 1015.56 1015.37 1014.90 1014.86
1013.90 1015.16 1016.62 1017.25 1017.60 1017.42 1017.03 1016.36 1016.22 1016.29 1016.33 1015.90 1014.62 1010.71 1008.15 1007.65 1007.65 1007.81 1008.13 1008.60 1008.96 1009.67 1010.53 1011.52 1012.41 1013.42 1013.96 1014.47 1015.12 1015.49 1015.61 1015.91 1016.22 1016.43 1016.18 1015.99 1016.21 1015.99 1015.96 1015.85 1015.51 1015.11 1014.85 1014.79
1013.85 1014.91 1016.02 1016.54 1016.23 1016.17 1016.61 1016.07 1016.07 1016.37 1016.48 1015.09 1013.36 1011.72 1009.34 1008.29 1008.37 1008.71 1008.65 1008.58 1009.17 1009.73 1010.44 1011.27 1012.33 1013.13 1013.74 1014.16 1014.81 1015.29 1015.48 1015.75 1016.05 1016.35 1016.17 1016.01 1016.23 1015.84 1015.87 1015.87 1015.39 1015.13 1014.75 1014.67
1014.47 1015.47 1016.04 1016.04 1016.10 1016.08 1015.69 1015.49 1015.56 1015.68 1015.05 1014.69 1013.51 1012.26 1010.14 1008.75 1008.24 1008.70 1008.73 1008.73 1009.20 1009.77 1010.29 1010.88 1011.70 1012.68 1013.43 1014.01 1014.52 1015.07 1015.32 1015.52 1015.82 1016.26 1016.10 1015.97 1015.99 1016.05 1015.84 1015.72 1015.51 1015.23 1014.83 1014.83
1014.97 1015.59 1016.18 1016.49 1016.07 1015.84 1015.26 1014.21 1014.29 1014.38 1014.25 1013.57 1012.67 1011.23 1009.01 1007.87 1008.08 1008.09 1008.04 1008.70 1008.86 1009.15 1009.81 1010.32 1011.06 1012.16 1012.94 1013.46 1013.85 1014.67 1015.10 1015.31 1015.61 1016.07 1016.02 1015.93 1015.87 1016.09 1016.03 1015.80 1015.85 1015.40 1015.39 1015.35
1015.23 1015.82 1016.47 1016.68 1016.32 1015.73 1014.33 1012.16 1012.32 1012.20 1012.08 1011.59 1011.17 1009.43 1007.40 1007.35 1007.23 1006.78 1006.64 1007.69 1007.99 1007.94 1008.44 1009.32 1010.17 1011.09 1012.00 1012.74 1013.16 1013.92 1014.73 1015.00 1015.41 1015.86 1015.98 1015.96 1016.15 1015.96 1016.38 1016.03 1015.95 1016.08 1015.85 1015.75
1015.65 1016.07 1016.51 1016.88 1016.44 1015.11 1011.05 1010.41 1010.25 1010.40 1009.78 1009.59 1008.58 1007.83 1006.85 1006.19 1006.01 1005.92 1005.93 1006.35 1006.55 1006.79 1007.21 1007.78 1008.85 1010.09 1011.11 1012.04 1012.98 1013.45 1014.45 1014.75 1015.20 1015.64 1015.89 1015.80 1016.22 1016.33 1016.33 1016.69 1016.40 1016.29 1016.29 1016.30
1015.42 1015.93 1016.30 1016.34 1015.98 1013.16 1010.18 1009.65 1009.27 1008.87 1008.03 1008.07 1007.79 1007.03 1006.24 1006.40 1006.06 1005.64 1005.31 1005.12 1005.04 1005.23 1005.59 1006.28 1007.33 1008.64 1009.99 1011.04 1012.27 1013.12 1014.21 1014.56 1015.10 1015.43 1015.65 1015.81 1016.25 1016.72 1016.52 1016.72 1016.88 1016.93 1017.05 1017.23
1015.09 1015.41 1015.73 1015.57 1014.90 1012.97 1010.13 1008.73 1008.08 1007.70 1007.86 1007.40 1006.85 1006.31 1006.24 1006.51 1006.53 1005.40 1005.02 1004.66 1004.53 1004.73 1004.93 1005.62 1006.65 1007.93 1009.21 1010.38 1011.60 1012.71 1013.69 1014.26 1014.71 1015.12 1015.33 1015.65 1016.04 1016.72 1016.90 1016.89 1017.30 1017.53 1017.56 1017.79
1014.60 1014.72 1014.30 1014.56 1013.56 1011.04 1009.21 1008.51 1008.26 1008.19 1008.57 1007.52 1006.91 1006.68 1006.82 1007.00 1006.82 1006.06 1005.61 1005.16 1004.87 1005.06 1005.48 1006.05 1006.90 1007.59 1008.31 1009.45 1010.67 1012.18 1013.12 1013.65 1013.85 1014.70 1015.09 1015.67 1015.89 1016.60 1017.16 1017.11 1017.22 1017.75 1018.08 1018.26
1013.47 1013.59 1013.52 1013.56 1012.50 1010.48 1008.69 1008.51 1008.31 1008.12 1007.75 1007.63 1007.18 1006.90 1006.95 1006.92 1006.54 1006.21 1005.48 1005.38 1005.41 1005.46 1006.06 1006.70 1007.25 1007.99 1008.60 1009.12 1009.95 1011.51 1012.45 1013.10 1013.57 1014.46 1015.06 1015.73 1016.14 1016.56 1017.35 1017.75 1017.92 1017.97 1018.34 1018.78
1012.66 1011.42 1011.72 1011.39 1010.07 1009.38 1008.66 1008.34 1008.05 1007.94 1007.92 1007.41 1007.19 1007.00 1007.11 1006.99 1006.45 1006.24 1005.83 1005.45 1005.82 1006.14 1006.71 1007.21 1007.95 1008.65 1008.98 1009.44 1009.54 1010.79 1011.90 1012.81 1013.49 1014.30 1014.97 1015.63 1016.25 1016.70 1017.41 1017.96 1018.31 1018.49 1018.51 1019.08
1011.89 1011.15 1011.29 1011.14 1009.83 1009.39 1008.86 1008.57 1008.46 1008.39 1007.87 1007.60 1007.24 1007.16 1007.33 1007.64 1007.26 1006.86 1006.07 1006.23 1006.42 1006.94 1007.35 1007.84 1008.25 1008.85 1009.32 1009.80 1010.14 1010.38 1011.76 1012.59 1013.35 1014.03 1014.85 1015.52 1016.20 1016.90 1017.52 1018.10 1018.47 1018.75 1018.87 1019.57
1011.04 1011.03 1011.11 1010.38 1009.82 1009.34 1009.02 1009.12 1009.24 1008.88 1008.60 1008.21 1008.11 1007.92 1007.99 1007.75 1007.36 1007.17 1006.80 1006.82 1007.02 1007.12 1007.31 1007.82 1008.43 1008.97 1009.53 1009.91 1010.51 1010.78 1011.71 1012.27 1013.21 1013.96 1014.66 1015.49 1016.11 1016.73 1017.46 1018.24 1018.64 1018.92 1019.04 1018.76
1010.71 1010.37 1010.48 1009.90 1009.66 1009.58 1009.52 1009.59 1009.39 1009.30 1009.27 1009.21 1009.35 1008.92 1008.53 1008.24 1007.79 1007.45 1007.50 1007.30 1007.36 1007.52 1007.40 1008.07 1008.51 1008.99 1009.53 1010.08 1010.53 1011.03 1011.67 1012.08 1012.88 1013.80 1014.49 1015.15 1016.01 1016.77 1017.27 1018.03 1018.93 1019.34 1019.59 1019.64
Thickness
5636 5630 5633 5634 5636 5648 5646 5642 5642 5646 5647 5646 5646 5650 5666 5671 5666 5661 5661 5657 5655 5654 5653 5641 5635 5631 5623 5616 5610 5603 5594 5586 5578 5570 5562 5554 5545 5535 5525 5512 5495 5481 5480 5480
5621 5622 5633 5637 5634 5634 5634 5635 5632 5640 5641 5638 5641 5659 5669 5665 5674 5673 5670 5668 5657 5648 5638 5633 5628 5624 5619 5611 5604 5598 5588 5580 5572 5565 5556 5547 5536 5527 5513 5495 5478 5471 5469 5471
5614 5632 5631 5630 5631 5629 5628 5625 5631 5632 5631 5633 5629 5654 5669 5670 5671 5669 5668 5663 5654 5643 5635 5627 5624 5620 5612 5605 5599 5592 5582 5575 5568 5561 5552 5541 5531 5517 5501 5482 5469 5466 5466 5468
5608 5622 5627 5623 5626 5624 5623 5626 5627 5624 5620 5618 5626 5625 5655 5660 5659 5664 5662 5657 5651 5641 5634 5626 5620 5615 5607 5601 5594 5587 5578 5570 5564 5557 5546 5535 5522 5507 5492 5474 5462 5462 5464 5466
5608 5610 5611 5614 5620 5619 5619 5617 5614 5612 5606 5606 5617 5604 5652 5652 5662 5661 5656 5651 5645 5638 5633 5625 5619 5615 5607 5598 5588 5581 5574 5568 5562 5554 5540 5530 5519 5502 5488 5474 5461 5460 5462 5465
5596 5598 5602 5606 5597 5606 5602 5604 5591 5579 5584 5568 5616 5607 5643 5652 5663 5670 5659 5649 5642 5635 5629 5624 5619 5610 5600 5591 5584 5577 5572 5565 5559 5552 5539 5529 5516 5501 5488 5473 5462 5461 5463 5467
5585 5590 5588 5593 5591 5594 5595 5589 5545 5561 5544 5587 5598 5597 5644 5666 5663 5664 5661 5651 5640 5634 5625 5617 5612 5604 5594 5589 5582 5576 5570 5562 5555 5548 5539 5530 5519 5504 5492 5477 5466 5468 5469 5473
5568 5564 5574 5580 5590 5591 5580 5588 5568 5572 5572 5588 5588 5604 5655 5660 5663 5658 5657 5655 5642 5632 5625 5617 5611 5604 5595 5591 5581 5576 5568 5561 5554 5548 5540 5530 5519 5507 5493 5483 5474 5472 5475 5478
5547 5561 5555 5560 5565 5573 5575 5567 5586 5544 5489 5550 5594 5620 5656 5658 5658 5660 5655 5648 5641 5633 5625 5617 5609 5604 5596 5590 5581 5574 5567 5561 5556 5548 5541 5531 5523 5511 5498 5490 5482 5483 5483 5488
5561 5549 5533 5549 5553 5557 5564 5567 5562 5534 5562 5562 5577 5605 5634 5662 5654 5652 5649 5642 5639 5633 5627 5618 5609 5603 5596 5590 5581 5572 5568 5562 5557 5550 5542 5535 5526 5517 5506 5500 5493 5496 5497 5500
5539 5549 5521 5532 5538 5551 5547 5541 5556 5559 5556 5559 5551 5602 5645 5657 5655 5649 5649 5645 5638 5630 5629 5621 5608 5600 5595 5587 5578 5572 5567 5563 5556 5551 5546 5539 5532 5524 5518 5512 5509 5510 5511 5514
5546 5529 5505 5528 5527 5531 5536 5557 5556 5545 5546 5523 5541 5588 5645 5651 5649 5644 5645 5642 5637 5631 5627 5616 5606 5595 5589 5584 5576 5572 5568 5564 5558 5554 5549 5544 5539 5532 5529 5526 5526 5526 5528 5527
5534 5508 5491 5518 5515 5517 5525 5537 5545 5544 5536 5524 5546 5579 5636 5640 5640 5640 5638 5633 5630 5627 5621 5610 5600 5591 5586 5582 5576 5571 5569 5565 5559 5554 5553 5548 5543 5539 5537 5537 5536 5538 5538 5536
5527 5492 5509 5529 5548 5524 5510 5523 5528 5535 5499 5537 5561 5570 5618 5622 5617 5619 5619 5626 5619 5619 5616 5607 5596 5591 5585 5582 5577 5571 5569 5566 5560 5556 5555 5551 5545 5547 5542 5541 5542 5542 5545 5545
5510 5490 5475 5484 5511 5518 5531 5527 5517 5516 5548 5540 5550 5541 5600 5615 5610 5599 5610 5618 5616 5599 5602 5601 5596 5590 5583 5580 5575 5571 5568 5566 5562 5558 5556 5553 5550 5548 5546 5544 5546 5546 5547 5546
5488 5479 5465 5466 5472 5489 5505 5523 5514 5512 5506 5526 5536 5551 5595 5607 5603 5602 5604 5608 5612 5608 5599 5598 5594 5587 5583 5579 5578 5571 5566 5565 5563 5559 5556 5556 5554 5550 5549 5547 5545 5549 5549 5548
5481 5475 5468 5492 5451 5475 5503 5537 5536 5533 5525 5536 5535 5574 5601 5594 5601 5613 5619 5606 5607 5614 5616 5603 5597 5591 5587 5581 5580 5574 5567 5565 5563 5558 5556 5555 5552 5553 5547 5547 5546 5544 5546 5548
5453 5463 5468 5452 5468 5473 5543 5543 5547 5542 5553 5547 5564 5572 5585 5593 5601 5604 5606 5607 5610 5618 5617 5612 5604 5594 5587 5581 5574 5573 5565 5563 5561 5558 5557 5556 5552 5549 5548 5543 5544 5544 5544 5544
5456 5454 5454 5453 5431 5492 5546 5537 5537 5546 5569 5551 5554 5564 5574 5574 5583 5595 5605 5608 5618 5623 5623 5619 5611 5601 5590 5584 5575 5571 5563 5560 5557 5556 5557 5553 5549 5545 5547 5544 5541 5540 5539 5539
5446 5451 5450 5449 5440 5451 5519 5542 5532 5551 5547 5552 5549 5557 5560 5562 5564 5591 5597 5600 5609 5609 5612 5608 5601 5594 5589 5582 5574 5568 5562 5559 5556 5554 5555 5552 5549 5545 5543 5543 5538 5536 5536 5534
5441 5441 5451 5453 5462 5473 5509 5512 5520 5516 5533 5536 5545 5548 5551 5547 5555 5567 5574 5588 5591 5593 5594 5589 5587 5589 5588 5581 5576 5566 5561 5559 5559 5553 5552 5548 5548 5543 5539 5540 5540 5535 5533 5532
5445 5442 5444 5448 5454 5467 5497 5505 5515 5516 5520 5523 5533 5543 5545 5541 5542 5550 5562 5568 5576 5579 5575 5574 5576 5575 5574 5574 5574 5563 5560 5557 5555 5549 5547 5543 5541 5539 5534 5532 5533 5534 5532 5529
5420 5453 5443 5460 5470 5480 5484 5499 5500 5497 5501 5513 5522 5526 5530 5531 5541 5543 5553 5557 5558 5562 5556 5559 5560 5556 5560 5562 5569 5561 5555 5550 5549 5545 5542 5538 5535 5534 5529 5527 5526 5527 5528 5525
5425 5439 5429 5440 5463 5463 5467 5472 5475 5482 5494 5499 5507 5510 5511 5514 5524 5532 5542 5540 5542 5541 5542 5539 5545 5546 5548 5549 5552 5555 5546 5544 5542 5540 5536 5533 5530 5527 5524 5520 5520 5521 5522 5516
5418 5422 5415 5427 5444 5456 5462 5461 5456 5465 5470 5477 5482 5488 5492 5501 5514 5521 5526 5523 5523 5530 5527 5531 5533 5535 5536 5537 5535 5539 5539 5538 5536 5534 5531 5527 5525 5523 5518 5513 5512 5512 5513 5518
5406 5413 5421 5430 5439 5441 5447 5439 5443 5452 5454 5459 5461 5468 5474 5484 5493 5502 5508 5513 5511 5511 5514 5518 5520 5521 5523 5524 5525 5528 5528 5531 5530 5527 5525 5523 5519 5515 5513 5510 5504 5503 5504 5506